COSMOS 1709

Satellite information

Favourite Embed

Satellite Type and Status

PAYLOADIN ORBIT

Key statistics

Satellite COSMOS 1709 at a glance.

Uptime

14549

Days in orbit

Revolutions

≈ 13.7

Per day

Orbit

LEO

Low Earth Orbit

Inclination

82.9

Latest

Satellite identification and parameters

Extended collection of information and parameters for COSMOS 1709.

Object identification

Identified? True

Debris? False

Object name: COSMOS 1709

International designator: 1985-116A

Object number (NORAD): 16368

Object ID (CCSDS): 16368

Country: COMMONWEALTH OF INDEPENDENT STATES (CIS)

Current information (Y/N): Y

RCS size: LARGE

Orbital parameters

Period: 104.751 minutes

Inclination: 82.9413 deg

SMA: 7360.913 km

Apoapsis: 1009.498 km

Periapsis: 956.058 km

RAAN: 291.6285 deg

Eccentricy: 0.00363001

Argument of periapsis: 77.5212 deg

Mean anomaly: 340.7908 deg

Mean motion: 13.74691414 rev/day

Mean motion (dot): 0.00000092 rev/day2

B* drag term: 0.000079888739 1/REarth

Two-line elements (TLE)

Creation date: Oct. 19, 2025, 2:20 a.m.

Reference frame: TEME

Reference center: EARTH

Epoch: Oct. 19, 2025, midnight UTC

TLE line 0: 0 COSMOS 1709

TLE line 1: 1 16368U 85116A 25292.00061770 .00000092 00000-0 79889-4 0 9992

TLE line 2: 2 16368 82.9413 291.6285 0036300 77.5212 340.7908 13.74691414997705

Live tracking on map

Real-time ground track for satellite COSMOS 1709.

In-orbit conjunctions

There are no conjunctions computed for COSMOS 1709, at the moment. Check back to stay up to date, as we update our databases every day.

Go to all conjunctions

Associated space launch

Navigation satellite providing location information for the Tsiklon-B navigation system

COSMOS 1709 was lifted into orbit during the mission ‘Kosmos-3M | Parus 52’, on board a Kosmos-3M space rocket.

The launch took place on Dec. 19, 1985, 8:46 a.m. from 132/1 (132L).

For more information about the launch, click the button.

Launch to space Kosmos-3M | Parus 52
Kosmos-3M | Parus 52

Agency: N/A

Status: Launch Successful

Launch date: Dec. 19, 1985, 8:46 a.m. UTC

Rocket: Kosmos-3M

Launch pad: 132/1 (132L)

Location: Plesetsk Cosmodrome, Russian Federation

...

Latest news about this satellite

There are no fresh news available about this satellite. Check back as we update our databases every day.


Newsletter sign-up

Weekly statistics, charts and insights to help you stay on top of the space industry.